sat.trackr.live / text

‹ back to catalog

STARLINK-35613

NORAD 66097 · 2025-236M

PAYLOAD ACTIVE UNKNOWN

§ Identity

Operator
Country
US
Launch date
2025-10-19
Launch site
AFWTR
Launch vehicle
Mass (kg)
RCS (m²)

Purposes: comms

External: N2YO · Heavens-Above · Gunter

§ Orbital elements

Epoch: 2026-05-25T03:40:05.008800Z

Period
94.10 min
Inclination
53.1605°
Eccentricity
0.0001225
Mean motion
15.30210409 rev/d
Perigee alt
474.3 km
Apogee alt
476.0 km
Semi-major
6,853.3 km
B*
5.3927e-4
RAAN
108.5492°
Arg perigee
81.6590°
Mean anomaly
278.4550°
Rev number
3,465

§ Raw data

STARLINK-356131 66097U 25236M   26145.15283575  .00015651  00000+0  53927-3 0  99962 66097  53.1605 108.5492 0001225  81.6590 278.4550 15.30210409 34652

JSON: /api/v1/satellites/66097 · /tle

For live sub-satellite position, see the globe view (requires WebGL).

§ Visibility from observer

Set your observer location to see the next 7 days of passes ≥ 10°. The values pass through the URL so the page stays shareable.

No JS? Fill the form by hand. The geolocation button needs JavaScript.